Regional Weather Roundup
Issued by NWS

Home | Current Version | Previous Version | Text Only | Print | Product List | Glossary Off
Versions: 1 2 3 4 5 6 7 8 9 10 11 12 13 14 15 16 17 18 19 20 21 22 23 24 25 26 27 28 29 30 31 32 33 34 35 36 37 38 39 40 41 42 43 44 45 46 47 48 49 50

000
ASUS43 KMPX 241301
RWRMN
WEATHER ROUNDUP FOR MINNESOTA
NATIONAL WEATHER SERVICE TWIN CITIES/CHANHASSEN MN
800 AM CDT SAT JUN 24 2017


NOTE: "FAIR" INDICATES FEW OR NO CLOUDS BELOW 12,000 FEET WITH NO
SIGNIFICANT WEATHER AND/OR OBSTRUCTIONS TO VISIBILITY. N/A MEANS
CURRENT SKY AND/OR WEATHER CONDITIONS ARE NOT AVAILABLE.

MNZ060>063-068>070-241400-
   Twin Cities Metro

CITY           SKY/WX    TMP DP  RH WIND       PRES   REMARKS
TWIN CITIES    SUNNY     58  43  57 NW12      30.00S
ST PAUL        MOSUNNY   58  46  64 NW15      30.00R
CRYSTAL        SUNNY     57  42  57 W12       29.99S
BLAINE         MOSUNNY   59  45  58 W12       29.99S
LAKEVILLE        N/A     54  45  71 W9        30.01S
EDEN PRAIRIE   SUNNY     58  42  55 NW12      30.00S
SOUTH ST PAUL  MOSUNNY   57  44  62 W8        30.00S
LAKE ELMO      PTSUNNY   55  43  62 W14G20    30.00R
$$
MNZ001>005-007-008-013>017-022>024-027-028-241400-
   Northwest Minnesota

CITY           SKY/WX    TMP DP  RH WIND       PRES   REMARKS
BEMIDJI        CLOUDY    51  43  75 W10       29.94S
HALLOCK        CLOUDY    52  46  82 NW15      29.96S
ROSEAU         CLOUDY    50  45  81 NW10      29.93S
WARROAD        MOSUNNY   50  46  87 W10       29.93R
THIEF RVR FALL CLOUDY    52  46  82 NW10      29.97S
CROOKSTON      CLOUDY    50  48  93 NW14      29.99S
FOSSTON        CLOUDY    48  43  81 W8        29.97S
DETROIT LAKES  PTSUNNY   52  41  66 W12G18    30.00S
MOORHEAD       MOSUNNY   54  43  66 NW18      30.01S
PARK RAPIDS    CLOUDY    51  40  65 W12       29.97S
MAHNOMEN       FAIR      49  43  78 W9        29.98S
$$
MNZ006-009>011-018-025>026-241400-
   North Central Minnesota

CITY           SKY/WX    TMP DP  RH WIND       PRES   REMARKS
BAUDETTE       CLOUDY    50  48  93 W8        29.91S
FLAG ISLAND    MOSUNNY   50  46  87 NW15      29.89R
INTL FALLS     CLOUDY    52  48  86 W9        29.88S
WASKISH        MOSUNNY   52  46  82 W10       29.93R
BIG FORK       LGT RAIN  52  48  87 W5        29.92R
LONGVILLE      CLOUDY    52  45  76 W7        29.95S
GRAND RAPIDS   CLOUDY    52  45  77 NW12G17   29.95R
CRANE LAKE     CLOUDY    52  48  87 W3        29.88S FOG
ORR            RAIN      52  46  82 W6        29.87R
COOK           CLOUDY    52  48  87 W8        29.89S
WALKER         PTSUNNY   49  42  76 W8        29.95S
$$
MNZ012-019>021-037-241400-
   Northeast Minnesota

CITY           SKY/WX    TMP DP  RH WIND       PRES   REMARKS
DULUTH         CLOUDY    53  48  83 NW12      29.89R
ELY            CLOUDY    52  50  93 W7        29.87R
HIBBING        CLOUDY    51  49  92 W7        29.90S
EVELETH        CLOUDY    53  47  82 W7        29.90S
DULUTH HARBOR  CLOUDY    57  50  77 SW9       29.91R
TWO HARBORS    CLOUDY    57  52  82 W5        29.86S
SILVER BAY     CLOUDY    55  52  88 CALM      29.85R
GRAND MARAIS     N/A     53  50  89 SW6       29.81R
G MARAIS ARPRT RAIN      52  48  87 CALM      29.84R
$$
MNZ029>031-032-039>041-046>048-054>057-064-241400-
   West Central Minnesota

CITY           SKY/WX    TMP DP  RH WIND       PRES   REMARKS
FERGUS FALLS   PTSUNNY   50  43  76 NW9       30.01S
WHEATON        CLOUDY    54  41  62 W8        30.06S
MORRIS         PTSUNNY   54  43  66 NW8       30.03F
ALEXANDRIA     PTSUNNY   52  42  69 NW13      30.03S
ELBOW LAKE     CLOUDY    50  42  74 NW9       30.04S
WADENA         CLOUDY    50  43  76 W6        29.99S
GLENWOOD       MOSUNNY   54  43  66 W12       30.04R
APPLETON       PTSUNNY   55  45  67 W10       30.06R
BENSON         MOSUNNY   54  43  66 NW9       30.07R
ORTONVILLE     PTSUNNY   54  43  66 NW9       30.07R
MADISON        MOSUNNY   61  46  59 W10       30.06F
WILLMAR        FAIR      54  46  76 W12       30.06S
$$
MNZ033>034-036-042>043-049>051-058-059-241400-
   Central Minnesota

CITY           SKY/WX    TMP DP  RH WIND       PRES   REMARKS
ST CLOUD       SUNNY     56  42  59 NW15      30.00S
SAUK CENTRE    FAIR      53  43  67 W8G16     30.03R
PAYNESVILLE    SUNNY     53  43  67 W10       30.04R
AITKIN         CLOUDY    50  45  81 W5        29.94S
PINE RIVER     SUNNY     52  45  76 W6        30.00R
BRAINERD       SUNNY     53  43  68 W14       29.97S
STAPLES        CLOUDY    52  41  66 W10       29.99S
LONG PRAIRIE   FAIR      52  43  71 SW9       30.02R
LITTLE FALLS   SUNNY     54  41  62 W10       30.00R
LITCHFIELD     SUNNY     55  46  71 W9        30.04
BUFFALO        SUNNY     56  41  58 W14       30.02S
MAPLE LAKE     SUNNY     56  45  66 W7        30.02S
HUTCHINSON     SUNNY     55  46  72 W12G17    30.05R
$$
MNZ037-044-045-052-053-241400-
   East Central Minnesota

CITY           SKY/WX    TMP DP  RH WIND       PRES   REMARKS
PRINCETON      MOSUNNY   55  45  67 W6        30.00R
MORA           CLOUDY    50  41  71 W9        29.99R
CAMBRIDGE      CLOUDY    55  43  62 W6        29.97S
RUSH CITY      CLOUDY    54  45  71 W8        29.98R
MOOSE LAKE     CLOUDY    54  43  66 W7        29.92S
HINCKLEY       PTSUNNY   54  48  82 W6        29.96S
CLOQUET        CLOUDY    54  43  66 W13G18    29.91S
MCGREGOR       MOSUNNY   52  45  76 W10       29.95S
$$
MNZ071>073-080-081-089-090-097-098-241400-
   Southwest Minnesota

CITY           SKY/WX    TMP DP  RH WIND       PRES   REMARKS
MONTEVIDEO     SUNNY     57  45  62 NW8       30.06S
GRANITE FALLS  SUNNY     58  45  62 W10       30.08S
CANBY          CLOUDY    56  45  68 CALM      30.08F
MARSHALL       MOSUNNY   57  44  62 W13       30.08S
REDWOOD FALLS  SUNNY     56  43  61 W10       30.06R
OLIVIA         SUNNY     54  43  66 W14       30.05R
PIPESTONE      MOSUNNY   55  45  67 W8        30.10S
WINDOM         SUNNY     55  43  62 W9        30.09S
WORTHINGTON    SUNNY     54  45  71 W10       30.11R
JACKSON        SUNNY     55  43  62 W5        30.10R
TRACY          SUNNY     57  45  64 W5        30.08F
SLAYTON        SUNNY     52  42  70 W9        30.10S HAZE
$$
MNZ065>067-074>077-082>085-091>093-241400-
   South Central Minnesota

CITY           SKY/WX    TMP DP  RH WIND       PRES   REMARKS
MANKATO        SUNNY     56  44  64 W9        30.05S
NEW ULM        SUNNY     55  43  62 W12       30.06R
ST JAMES       SUNNY     55  43  62 W12       30.08S
FAIRMONT       SUNNY     56  43  61 W9        30.08R
GLENCOE        SUNNY     55  48  75 W10       30.03R
FARIBAULT      SUNNY     55  45  67 W12       30.03R
OWATONNA       SUNNY     55  45  67 NW15      30.04R
WASECA         SUNNY     54  43  66 W15       30.06R
ALBERT LEA     SUNNY     55  45  67 NW12      30.05R
$$
MNZ078>079-086>088-094>096-241400-
   Southeast Minnesota

CITY           SKY/WX    TMP DP  RH WIND       PRES   REMARKS
ROCHESTER      SUNNY     56  44  64 NW17G26   30.02R
RED WING       PTSUNNY   57  45  62 W10       29.98S
STANTON        MOSUNNY   56  45  67 NW12G18   30.00S
DODGE CENTER   SUNNY     55  43  62 W13G22    30.02S
WINONA         PTSUNNY   59  50  72 W8        29.98R
AUSTIN         SUNNY     55  45  67 NW14G20   30.03S
PRESTON        MOSUNNY   54  44  69 NW13G22   30.02R
$$
ABBREVIATIONS USED IN REMARKS
   TC - TEMPERATURES IN CELSIUS
  WCI - WIND CHILL INDEX
   HX - HEAT INDEX
  VSB - VISIBILITY
$$




USA.gov is the U.S. government's official web portal to all federal, state and local government web resources and services.